Miscellaneous Local Product
Issued by NWS Hastings, NE

Home | Current Version | Previous Version | Graphics & Text | Print | Product List | Glossary On
Versions: 1 2 3 4 5 6 7 8 9 10 11 12 13 14 15 16 17 18 19 20 21 22 23 24 25 26 27 28 29 30 31 32 33 34 35 36 37 38 39 40 41 42 43 44 45 46 47 48 49 50
000
AXUS43 KGID 040902
MISGRI

GID CWA HOURLY WEATHER ROUNDUP
NATIONAL WEATHER SERVICE HASTINGS NE
400 AM CDT SAT JUL 04 2015

NOTE: "FAIR" INDICATES FEW OR NO CLOUDS BELOW 12,000 FEET WITH NO
SIGNIFICANT WEATHER AND/OR OBSTRUCTIONS TO VISIBILITY.

...SOUTH CENTRAL NEBRASKA...

CITY           SKY/WX    TMP DP  RH WIND       PRES   REMARKS
GRAND ISLAND   CLEAR     62  59  90 S6        30.01S
HASTINGS       CLEAR     63  60  90 S5        30.01S
KEARNEY        CLEAR     61  57  88 CALM      30.01F
ORD            CLEAR     61  59  93 CALM      29.99S FOG
YORK           PTCLDY    61  61 100 S3        30.00F FOG
AURORA         CLEAR     64  62  94 S5        30.00S
LEXINGTON      CLEAR     64  61  90 S5        30.01R
HOLDREGE       CLEAR     61  58  92 S6        30.01F
HEBRON         CLEAR     61  59  91 CALM      30.00S

...NEBRASKA PANHANDLE...

CITY           SKY/WX    TMP DP  RH WIND       PRES   REMARKS
CHADRON        PTCLDY    70  58  65 S9        29.92F
ALLIANCE       MOCLDY    66  60  81 S9        29.99F
SCOTTSBLUFF    CLOUDY    68  59  73 E10       29.96F
SIDNEY         PTCLDY    65  59  81 S12       30.03S

...WESTERN AND NORTH CENTRAL NEBRASKA...

CITY           SKY/WX    TMP DP  RH WIND       PRES   REMARKS
VALENTINE      PTCLDY    65  60  84 S8        29.97R
AINSWORTH      CLEAR     63  62  97 S8        29.97F
ONEILL         CLEAR     63  62  97 S5        29.98F FOG
BROKEN BOW     CLEAR     60  57  89 CALM      30.01R FOG
IMPERIAL       PTCLDY    64  58  80 SE8       30.00F
NORTH PLATTE   CLEAR     66  59  78 SE9       30.00F
MCCOOK         MOCLDY    65  59  81 SE5       30.00F

...EASTERN NEBRASKA...

CITY           SKY/WX    TMP DP  RH WIND       PRES   REMARKS
NORFOLK        CLEAR     60  59  96 SW3       29.99S FOG
SO SIOUX CITY  PTCLDY    59  56  89 SE3       29.98S
TEKAMAH        FAIR      56  53  90 CALM      29.98S
COLUMBUS         N/A     55  52  88 CALM      29.98F VSB<1/4
ALBION         CLEAR     59  56  90 CALM      30.00S FOG
OMAHA EPPLEY   CLEAR     60  58  92 CALM      29.98F FOG
OFFUTT AFB     CLEAR     56  56  99 E2        29.97F
MILLARD          N/A     59  58  96 CALM      29.99S FOG
LINCOLN        CLEAR     64  59  83 CALM      29.99F
NEBRASKA CITY  CLEAR     63  52  67 S3        29.99S
BEATRICE       CLEAR     59  57  92 CALM      29.99F
FALLS CITY     CLEAR     60  59  96 CALM      29.99R

...NORTHERN KANSAS...

CITY           SKY/WX    TMP DP  RH WIND       PRES   REMARKS
GOODLAND       PTCLDY    66  59  78 S10       30.03F
HILL CITY      PTCLDY    62  58  86 E3        30.00F
NORTON         SUNNY     63  55  77 SE5       30.00S
PHILLIPSBURG   CLEAR     64  64 100 NE5       30.00F FOG
SMITH CENTER   CLEAR     61  61 100 E7        30.00F
HAYS           CLEAR     63  54  72 CALM      30.00F
RUSSELL        CLEAR     64  62  93 SE7       29.98F
CONCORDIA      CLEAR     61  56  83 SE3       29.99F
SALINA         CLEAR     66  58  75 CALM      30.00R
TOPEKA         CLEAR     62  60  93 CALM      29.99R FOG



USA.gov is the U.S. government's official web portal to all federal, state and local government web resources and services.